This is the latest recevied weather packets stored in our database for station/object KJ4YLO. If no packets are shown the sender has not sent any weather packets the latest 10 day(s).
| Time | Temp. | Humidity | Pressure | Rain* | Wind** | Luminosity | Snow |
|---|---|---|---|---|---|---|---|
| 1777914172 | 22.22° C | 30% | 1017.6 hPa | 0 mm | - | 787 W/m² | - |
| 1777913868 | 22.78° C | 31% | 1018 hPa | 0 mm | - | 802 W/m² | - |
| 1777913565 | 22.22° C | 32% | 1018 hPa | 0 mm | - | 759 W/m² | - |
| 1777913261 | 22.22° C | 33% | 1018.3 hPa | 0 mm | - | 687 W/m² | - |
| 1777912958 | 22.22° C | 35% | 1018.3 hPa | 0 mm | - | 698 W/m² | - |
| 1777912654 | 22.22° C | 34% | 1018 hPa | 0 mm | - | 709 W/m² | - |
| 1777912350 | 21.67° C | 34% | 1018.3 hPa | 0 mm | - | 785 W/m² | - |
| 1777912046 | 22.78° C | 34% | 1018.3 hPa | 0 mm | - | 747 W/m² | - |
| 1777911742 | 21.67° C | 35% | 1018.3 hPa | 0 mm | - | 666 W/m² | - |
| 1777911440 | 21.11° C | 35% | 1018.3 hPa | 0 mm | - | 640 W/m² | - |
| 1777911136 | 21.11° C | 35% | 1018.3 hPa | 0 mm | - | 640 W/m² | - |
| 1777910834 | 21.11° C | 35% | 1018.3 hPa | 0 mm | - | 640 W/m² | - |
| 1777910530 | 21.11° C | 35% | 1018.3 hPa | 0 mm | - | 636 W/m² | - |
| 1777910227 | 20.56° C | 36% | 1018.6 hPa | 0 mm | - | 146 W/m² | - |
| 1777909924 | 21.11° C | 38% | 1018.3 hPa | 0 mm | - | 743 W/m² | - |
| 1777909621 | 20.56° C | 35% | 1018.6 hPa | 0 mm | - | 739 W/m² | - |
| 1777909318 | 20.56° C | 36% | 1018.6 hPa | 0 mm | - | 176 W/m² | - |
| 1777909016 | 20.56° C | 37% | 1018.6 hPa | 0 mm | - | 72 W/m² | - |
| 1777908714 | 20.56° C | 37% | 1018.6 hPa | 0 mm | - | 131 W/m² | - |
| 1777848691 | 20° C | 36% | 1016.6 hPa | 0 mm | - | 44 W/m² | - |
| 1777848389 | 20° C | 36% | 1016.6 hPa | 0 mm | - | 44 W/m² | - |
| 1777848087 | 21.11° C | 32% | 1016.3 hPa | 0 mm | - | 42 W/m² | - |
| 1777847785 | 21.11° C | 30% | 1016.6 hPa | 0 mm | - | 56 W/m² | - |
| 1777847480 | 21.11° C | 30% | 1016.6 hPa | 0 mm | - | 56 W/m² | - |
| 1777847178 | 21.11° C | 35% | 1016.3 hPa | 0 mm | - | 62 W/m² | - |
* Rain latest hour (hover to see other rain measurements)
** Current wind speed in m/s (hover to see current wind gust speed)